TimeCDT,TemperatureF,Dew PointF,Humidity,Sea Level PressureIn,VisibilityMPH,Wind Direction,Wind SpeedMPH,Gust SpeedMPH,PrecipitationIn,Events,Conditions,WindDirDegrees,DateUTC
12:54 AM,75.0,61.0,62,29.83,10.0,ENE,4.6,-,N/A,,Clear,60,2013-07-23 05:54:00
1:54 AM,73.9,61.0,64,29.84,10.0,Calm,Calm,-,N/A,,Clear,0,2013-07-23 06:54:00
2:54 AM,73.0,61.0,66,29.84,10.0,Calm,Calm,-,N/A,,Clear,0,2013-07-23 07:54:00
3:54 AM,71.1,61.0,70,29.83,10.0,North,6.9,-,N/A,,Clear,350,2013-07-23 08:54:00
4:54 AM,68.0,61.0,78,29.85,10.0,North,9.2,-,N/A,,Clear,360,2013-07-23 09:54:00
5:54 AM,71.6,60.8,69,29.94,10.0,NW,29.9,41.4,N/A,,Mostly Cloudy,320,2013-07-23 10:54:00
6:01 AM,71.6,60.8,69,29.97,10.0,NNW,28.8,41.4,N/A,,Overcast,330,2013-07-23 11:01:00
6:18 AM,71.6,60.8,69,29.97,9.0,North,27.6,42.6,N/A,Thunderstorm,Thunderstorm,350,2013-07-23 11:18:00
6:20 AM,71.6,60.8,69,29.98,9.0,North,28.8,42.6,N/A,Thunderstorm,Thunderstorm,350,2013-07-23 11:20:00
6:26 AM,71.6,60.8,69,30.04,10.0,West,21.9,38.0,0.00,Rain-Thunderstorm,Light Thunderstorms and Rain,280,2013-07-23 11:26:00
6:37 AM,69.8,62.6,78,30.03,4.0,NNW,13.8,23.0,0.03,Rain-Thunderstorm,Light Thunderstorms and Rain,330,2013-07-23 11:37:00
6:43 AM,66.2,62.6,88,29.96,1.8,North,33.4,40.3,0.08,Rain-Thunderstorm,Heavy Thunderstorms and Rain,10,2013-07-23 11:43:00
6:51 AM,66.2,62.6,88,29.97,3.0,NNE,23.0,40.3,0.18,Rain-Thunderstorm,Heavy Thunderstorms and Rain,20,2013-07-23 11:51:00
6:54 AM,66.0,63.0,90,29.93,3.0,North,26.5,38.0,0.21,Rain-Thunderstorm,Heavy Thunderstorms and Rain,10,2013-07-23 11:54:00
7:01 AM,66.2,62.6,88,29.94,6.0,North,26.5,38.0,0.00,Rain-Thunderstorm,Heavy Thunderstorms and Rain,10,2013-07-23 12:01:00
7:34 AM,66.2,62.6,88,30.02,7.0,NE,8.1,-,0.04,Thunderstorm,Thunderstorm,40,2013-07-23 12:34:00
7:54 AM,66.0,63.0,90,29.93,6.0,East,10.4,-,0.07,Rain-Thunderstorm,Light Thunderstorms and Rain,90,2013-07-23 12:54:00
8:05 AM,66.2,62.6,88,29.94,10.0,East,12.7,-,0.00,Rain,Light Rain,90,2013-07-23 13:05:00
8:54 AM,66.0,62.1,87,29.86,10.0,East,12.7,-,0.00,,Mostly Cloudy,80,2013-07-23 13:54:00
9:54 AM,69.1,62.1,78,29.86,10.0,East,6.9,-,N/A,,Clear,100,2013-07-23 14:54:00
10:54 AM,73.9,63.0,68,29.91,10.0,South,8.1,-,N/A,,Clear,190,2013-07-23 15:54:00
11:45 AM,75.2,62.6,65,29.97,10.0,NNW,5.8,-,N/A,,Mostly Cloudy,330,2013-07-23 16:45:00
11:54 AM,75.9,63.0,64,29.93,10.0,NNE,3.5,-,N/A,,Mostly Cloudy,20,2013-07-23 16:54:00
12:54 PM,75.9,64.9,69,29.95,10.0,NNE,6.9,-,N/A,,Overcast,30,2013-07-23 17:54:00
1:34 PM,75.2,64.4,69,29.94,10.0,NE,11.5,-,N/A,,Scattered Clouds,50,2013-07-23 18:34:00
1:54 PM,75.0,64.0,69,29.91,10.0,ENE,9.2,-,N/A,,Scattered Clouds,70,2013-07-23 18:54:00
2:06 PM,75.2,64.4,69,29.95,10.0,ENE,12.7,-,N/A,,Mostly Cloudy,70,2013-07-23 19:06:00
2:25 PM,77.0,62.6,61,29.96,10.0,ENE,15.0,-,N/A,,Scattered Clouds,70,2013-07-23 19:25:00
2:54 PM,79.0,64.0,60,29.93,10.0,East,9.2,-,N/A,,Clear,90,2013-07-23 19:54:00
3:54 PM,81.0,64.0,56,29.94,10.0,NNE,4.6,-,N/A,,Mostly Cloudy,30,2013-07-23 20:54:00
4:54 PM,82.0,63.0,52,29.94,10.0,NE,11.5,-,N/A,,Partly Cloudy,40,2013-07-23 21:54:00
5:54 PM,82.0,63.0,52,29.93,10.0,ENE,6.9,-,N/A,,Partly Cloudy,60,2013-07-23 22:54:00
6:54 PM,81.0,62.1,52,29.92,10.0,NE,9.2,-,N/A,,Clear,50,2013-07-23 23:54:00
7:54 PM,79.0,62.1,56,29.93,10.0,NNE,10.4,-,N/A,,Clear,30,2013-07-24 00:54:00
8:54 PM,73.0,63.0,71,29.94,10.0,NNE,8.1,-,N/A,,Clear,30,2013-07-24 01:54:00
9:54 PM,69.1,63.0,81,29.97,10.0,North,5.8,-,N/A,,Clear,10,2013-07-24 02:54:00
10:54 PM,68.0,62.1,81,29.96,10.0,NE,5.8,-,N/A,,Clear,40,2013-07-24 03:54:00
11:54 PM,66.0,62.1,87,29.98,10.0,NE,3.5,-,N/A,,Clear,40,2013-07-24 04:54:00